Location: Anciles
(42.5833°N, 0.5167°E)
Time: 20:57:59
(UTC+00:00)

CZ-4B R/B - Pass Details

Date: 10 December 2019
Orbit: 809 x 881 km, 99.1° (Epoch: 26 January)

Event Time Altitude Azimuth Distance (km) Brightness Sun altitude
Rises 16:52:26 0° 173° (S) 3,320 6.6 -5.3°
Reaches altitude 10° 16:54:46 10° 176° (S) 2,398 5.9 -5.7°
Maximum altitude 17:00:01 64° 258° (WSW) 908 3.7 -6.6°
Drops below altitude 10° 17:05:24 10° 340° (NNW) 2,452 5.6 -7.5°
Sets 17:07:49 0° 343° (NNW) 3,401 6.3 -7.9°
